NW Arkansas Airport, AR

1:26 PM CDT on August 23, 2017 (GMT -0500)
Northwest Arkansas Regional

Weather History for KXNA - February, 2012

Change the Weather History Date:

Sunday, February 19, 2012

  Actual Average (KVBT) Record (KVBT)
Temperature  
Mean Temperature 45 °F -  
Max Temperature 54 °F 51 °F 78 °F (1986)
Min Temperature 36 °F 27 °F -3 °F (1978)
Degree Days  
Heating Degree Days 20    
Moisture  
Dew Point 26 °F    
Average Humidity 53    
Maximum Humidity 73    
Minimum Humidity 30    
Precipitation  
Precipitation 0.00 in - - ()
Sea Level Pressure  
Sea Level Pressure 30.06 in    
Wind  
Wind Speed 4 mph (NE)    
Max Wind Speed 8 mph    
Max Gust Speed -    
Visibility 10 miles    
Events      
Averages and records for this station are not official NWS values.
T = Trace of Precipitation, MM = Missing Value Source: NWS Daily Summary

Daily Weather History Graph

Daily Weather History Graph

Search for Another Location

Airport or City:

Trip Planner

Search our weather history database for the weather conditions in past years. The results will help you decide how hot, cold, wet, or windy it might be!

Date:

Astronomy

Feb. 19, 2012 Rise Set
Actual Time 7:00 AM CST 6:01 PM CST
Civil Twilight 6:34 AM CST 6:28 PM CST
Nautical Twilight 6:04 AM CST 6:58 PM CST
Astronomical Twilight 5:34 AM CST 7:27 PM CST
Moon 5:19 AM CST (2/19) 4:06 PM CST (2/19)
Length of Visible Light 11h 53m
Length of Day
11h 01m
Waning Crescent, 5% of the Moon is Illuminated
Feb 19
Waning Crescent
Feb 21
New
Feb 29
First Quarter
Mar 8
Full
Mar 14
Last Quarter

Hourly Weather History & Observations

Time (CST) Temp. Windchill Dew Point Humidity Pressure Visibility Wind Dir Wind Speed Gust Speed Precip Events Conditions
12:53 AM 36.0 °F 30.3 °F 28.0 °F 73% 30.05 in 10.0 mi NE 6.9 mph - N/A   Clear
1:53 AM 36.0 °F 31.1 °F 28.0 °F 73% 30.05 in 10.0 mi NNE 5.8 mph - N/A   Mostly Cloudy
2:53 AM 37.0 °F 34.5 °F 28.0 °F 70% 30.05 in 10.0 mi NNE 3.5 mph - N/A   Overcast
3:53 AM 37.0 °F 34.5 °F 28.0 °F 70% 30.05 in 10.0 mi North 3.5 mph - N/A   Overcast
4:53 AM 37.0 °F 34.5 °F 28.0 °F 70% 30.05 in 10.0 mi NNE 3.5 mph - N/A   Overcast
5:53 AM 37.0 °F 33.3 °F 28.9 °F 73% 30.06 in 10.0 mi North 4.6 mph - N/A   Overcast
7:53 AM 37.9 °F - 28.0 °F 68% 30.09 in 10.0 mi Calm Calm - N/A   Overcast
8:53 AM 42.1 °F - 28.0 °F 58% 30.11 in 10.0 mi Calm Calm - N/A   Clear
9:53 AM 43.0 °F - 27.0 °F 53% 30.12 in 10.0 mi Calm Calm - N/A   Clear
11:53 AM 51.1 °F - 26.1 °F 38% 30.11 in 10.0 mi NNW 6.9 mph - N/A   Clear
12:53 PM 52.0 °F - 25.0 °F 35% 30.08 in 10.0 mi NNE 3.5 mph - N/A   Clear
1:53 PM 54.0 °F - 25.0 °F 33% 30.06 in 10.0 mi Variable 3.5 mph - N/A   Clear
2:53 PM 53.1 °F - 25.0 °F 34% 30.05 in 10.0 mi Calm Calm - N/A   Clear
3:53 PM 54.0 °F - 24.1 °F 31% 30.03 in 10.0 mi West 3.5 mph - N/A   Clear
4:53 PM 54.0 °F - 23.0 °F 30% 30.02 in 10.0 mi Calm Calm - N/A   Clear
5:53 PM 51.1 °F - 26.1 °F 38% 30.03 in 10.0 mi Calm Calm - N/A   Clear
6:53 PM 48.0 °F - 23.0 °F 37% 30.01 in 10.0 mi East 3.5 mph - N/A   Clear
7:53 PM 45.0 °F 41.8 °F 25.0 °F 46% 30.02 in 10.0 mi East 5.8 mph - N/A   Clear
8:53 PM 44.1 °F 41.5 °F 26.1 °F 49% 30.03 in 10.0 mi ESE 4.6 mph - N/A   Clear
9:53 PM 42.1 °F 38.4 °F 27.0 °F 55% 30.05 in 10.0 mi SE 5.8 mph - N/A   Clear
10:53 PM 39.0 °F 33.4 °F 28.0 °F 65% 30.07 in 10.0 mi SSE 8.1 mph - N/A   Partly Cloudy
11:53 PM 39.0 °F 35.7 °F 27.0 °F 62% 30.06 in 10.0 mi SSE 4.6 mph - N/A   Clear